789  
ASUS43 KDTX 300110  
RWRMI  
MICHIGAN HOURLY REGIONAL WEATHER ROUNDUP  
NATIONAL WEATHER SERVICE DETROIT/PONTIAC MI  
ISSUED BY NATIONAL WEATHER SERVICE GRAND RAPIDS MI  
900 PM EDT MON MAY 29 2017  
 
NOTE: "FAIR" INDICATES FEW OR NO CLOUDS BELOW 12,000 FEET WITH NO  
SIGNIFICANT WEATHER AND/OR TO VISIBILITY
.  
 
MIZ047>049-052>055-059>063-066>070-074>076-081>083-300200-  
SOUTHEAST LOWER MICHIGAN  
 
CITY SKY/WX TMP DP RH WIND PRES REMARKS
 
ADRIAN PTCLDY 64 54 69 W6 29.85R  
ALMA CLEAR 66 42 42 W16G23 29.82R  
ANN ARBOR PTCLDY 68 50 52 S10 29.83R  
BAD AXE CLEAR 67 41 38 W8G18 29.80R  
DETROIT CITY CLOUDY 64 58 80 S6 29.82S  
DETROIT CLOUDY 67 55 65 S12 29.85R  
FLINT PTCLDY 67 43 41 W14 29.81R  
GROSSE ILE MOCLDY 66 54 64 W5 29.84S  
HILLSDALE MOCLDY 64 46 52 SW9 29.87R  
HOWELL PTCLDY 68 39 34 W10G16 29.83R  
 
CITY SKY/WX TMP DP RH WIND PRES REMARKS
 
JACKSON CLEAR 67 43 41 W8 29.85R  
LANSING CLEAR 68 41 37 W15 29.83R  
MASON CLEAR 68 44 42 W8 29.84R  
MONROE MOCLDY 68 53 58 NW7 29.84R  
MT. CLEMENS PTCLDY 63 56 77 S10 29.81R  
PONTIAC PTCLDY 69 47 45 SW6 29.81R  
PORT HOPE N/A 67 43 41 VRB6 29.76R  
PORT HURON CLEAR 61 50 67 S6 29.81S  
TRI CITIES CLEAR 67 44 43 W15 29.80R  
YPSILANTI MOCLDY 69 54 58 S12 29.84R  

 
MIZ043>046-050>051-056>058-064>065-071>073-077>080-300200-  
SOUTHWEST LOWER MICHIGAN  
 
CITY SKY/WX TMP DP RH WIND PRES REMARKS
 
BATTLE CREEK CLEAR 66 44 45 W8 29.86R  
BENTON HARBOR PTCLDY 62 45 53 W3 29.86R  
BIG RAPIDS CLEAR 62 41 46 W8 29.80R  
COLDWATER MOCLDY 67 40 36 W6 29.87R  
HOLLAND MOCLDY 62 47 57 W5 29.85R  
GRAND RAPIDS PTCLDY 66 46 48 W10 29.83R  
KALAMAZOO CLEAR 66 43 43 W6 29.86R  
MARSHALL CLEAR 66 43 42 W8 29.85R  
MOUNT PLEASANT CLEAR 65 43 44 W10G16 29.80R  
MUSKEGON PTCLDY 60 47 61 SW7 29.83R  
STURGIS MOCLDY 67 44 43 NW3 29.86R  

 
MIZ016>042-300200-  
NORTHERN LOWER MICHIGAN  
 
CITY SKY/WX TMP DP RH WIND PRES REMARKS
 
ALPENA CLEAR 64 48 56 SW6 29.75R  
BEAVER ISLAND PTCLDY 50 46 84 S5 29.71S  
BELLAIRE MOCLDY 62 46 57 SW3 29.75S  
CADILLAC CLOUDY 61 44 53 W9 29.79R  
CHARLEVOIX PTCLDY 58 47 66 SW10 29.76S  
GAYLORD CLOUDY 62 44 51 W12G23 29.76R  
HOUGHTON LAKE CLEAR 63 45 51 W12 29.79R  
MANISTEE MOCLDY 61 46 57 SW5 29.78R  
OSCODA CLOUDY 68 41 37 W14G20 29.76R  
PELLSTON PTCLDY 59 45 59 SW9 29.73R  
TRAVERSE CITY MOCLDY 63 46 54 W6G16 29.74S  
LUDINGTON MOCLDY 56 48 74 SW7 29.79S  

 
MIZ007>008-015-300200-  
EASTERN UPPER MICHIGAN  
 
CITY SKY/WX TMP DP RH WIND PRES REMARKS
 
KINROSS PTCLDY 56 48 74 S3 29.68F  
MACKINAC ISLAN PTCLDY 51 47 86 SW9G17 29.70F  
NEWBERRY CLOUDY 53 52 97 W3 29.69R  
S. S. MARIE MOCLDY 59 50 72 SW5 29.67F  

 
MIZ004>006-011>014-085-300200-  
CENTRAL UPPER MICHIGAN  
 
CITY SKY/WX TMP DP RH WIND PRES REMARKS
 
MANISTIQUE PTCLDY 50 47 90 S5 29.69R  
ESCANABA CLOUDY 57 53 86 W7 29.70R  
SAWYER-GWINN MOCLDY 59 48 67 W14 29.67S  

 
MIZ001>003-009>011-084-300200-  
WESTERN UPPER MICHIGAN  
 
CITY SKY/WX TMP DP RH WIND PRES REMARKS
 
IRON MOUNTAIN LGT RAIN 55 49 80 W6 29.70R  
HOUGHTON CLOUDY 52 47 83 W14 29.64S  
COPPER HARBOR N/A 57 50 77 VRB5 29.61R  
IRONWOOD LGT RAIN 52 49 89 W10 29.74R  

 
 
ABBREVIATIONS USED IN REMARKS  
TC - TEMPERATURE IN CELSIUS  
WCI - WIND CHILL INDEX  
HX - HEAT INDEX  
VSB - VISIBILITY  
 
 
 
CLICK HERE TO GO TO PREVIOUS BULLETINS.

The Nexlab MI Page Main Text Page